• Em Portugal
  • Lista de países
  • Para 7 dias
  • Temperatura da água
  • Mapas de satélite
  • Mapa do tempo
  • Widgets de tempo
  • user-avatar
    Iniciar Sessão

    Previsão horária em Golden Sands

    Hoje, 20 Setembro, Quinta-feira

    Tempo Temperatura Precipitação Vento Pressão Humidade
    00:00 +18°C° 0 mm 3 m/s 765 mmHg 74%
    01:00 +18°C° 0 mm 3 m/s 765 mmHg 75%
    02:00 +17°C° 0 mm 3 m/s 765 mmHg 75%
    03:00 +17°C° 0 mm 3 m/s 765 mmHg 76%
    04:00 +17°C° 0 mm 4 m/s 765 mmHg 77%
    05:00 +17°C° 0 mm 4 m/s 765 mmHg 78%
    06:00 +18°C° 0 mm 4 m/s 765 mmHg 74%
    07:00 +19°C° 0 mm 5 m/s 765 mmHg 70%
    08:00 +21°C° 0 mm 5 m/s 765 mmHg 66%
    09:00 +22°C° 0 mm 5 m/s 765 mmHg 62%
    10:00 +23°C° 0 mm 6 m/s 765 mmHg 58%
    11:00 +26°C° 0 mm 6 m/s 765 mmHg 55%
    12:00 +26°C° 0 mm 6 m/s 764 mmHg 54%
    13:00 +27°C° 0 mm 6 m/s 764 mmHg 53%
    14:00 +27°C° 0 mm 5 m/s 764 mmHg 52%
    15:00 +27°C° 0 mm 5 m/s 764 mmHg 55%
    16:00 +26°C° 0 mm 5 m/s 764 mmHg 58%
    17:00 +25°C° 0 mm 5 m/s 763 mmHg 61%
    18:00 +23°C° 0 mm 5 m/s 763 mmHg 68%
    19:00 +22°C° 0 mm 5 m/s 763 mmHg 76%
    20:00 +20°C° 0 mm 5 m/s 763 mmHg 83%
    21:00 +20°C° 0 mm 4 m/s 763 mmHg 84%
    22:00 +20°C° 0 mm 4 m/s 763 mmHg 85%
    23:00 +19°C° 0 mm 4 m/s 763 mmHg 87%

    Amanhã, 21 Setembro, Sexta-feira

    Tempo Temperatura Precipitação Vento Pressão Humidade
    00:00 +19°C° 0 mm 4 m/s 763 mmHg 87%
    01:00 +19°C° 0 mm 4 m/s 763 mmHg 87%
    02:00 +19°C° 0 mm 4 m/s 763 mmHg 87%
    03:00 +19°C° 0 mm 4 m/s 763 mmHg 87%
    04:00 +19°C° 0 mm 4 m/s 763 mmHg 87%
    05:00 +18°C° 0 mm 4 m/s 763 mmHg 87%
    06:00 +19°C° 0 mm 4 m/s 763 mmHg 81%
    07:00 +20°C° 0 mm 4 m/s 763 mmHg 75%
    08:00 +22°C° 0 mm 4 m/s 763 mmHg 69%
    09:00 +23°C° 0 mm 4 m/s 763 mmHg 62%
    10:00 +26°C° 0 mm 4 m/s 763 mmHg 55%
    11:00 +28°C° 0 mm 4 m/s 763 mmHg 48%
    12:00 +28°C° 0 mm 4 m/s 763 mmHg 47%
    13:00 +28°C° 0 mm 4 m/s 763 mmHg 46%
    14:00 +29°C° 0 mm 4 m/s 763 mmHg 45%
    15:00 +28°C° 0 mm 4 m/s 762 mmHg 49%
    16:00 +27°C° 0 mm 3 m/s 762 mmHg 52%
    17:00 +26°C° 0 mm 3 m/s 762 mmHg 56%
    18:00 +25°C° 0 mm 3 m/s 762 mmHg 62%
    19:00 +24°C° 0 mm 3 m/s 762 mmHg 69%
    20:00 +21°C° 0 mm 2 m/s 762 mmHg 75%
    21:00 +21°C° 0 mm 2 m/s 762 mmHg 76%
    22:00 +21°C° 0 mm 2 m/s 762 mmHg 77%
    23:00 +21°C° 0 mm 2 m/s 762 mmHg 77%

    Depois de amanhã, 22 Setembro, Sábado

    Tempo Temperatura Precipitação Vento Pressão Humidade
    00:00 +21°C° 0 mm 1 m/s 762 mmHg 78%
    01:00 +21°C° 0 mm 1 m/s 762 mmHg 78%
    02:00 +21°C° 0 mm 1 m/s 762 mmHg 79%
    03:00 +20°C° 0 mm 1 m/s 762 mmHg 78%
    04:00 +20°C° 0 mm 1 m/s 762 mmHg 77%
    05:00 +20°C° 0 mm 1 m/s 762 mmHg 77%
    06:00 +21°C° 0 mm 1 m/s 762 mmHg 72%
    07:00 +22°C° 0 mm 1 m/s 762 mmHg 66%
    08:00 +24°C° 0 mm 1 m/s 762 mmHg 61%
    09:00 +25°C° 0 mm 2 m/s 762 mmHg 55%
    10:00 +26°C° 0 mm 2 m/s 762 mmHg 48%
    11:00 +28°C° 0 mm 2 m/s 762 mmHg 42%
    12:00 +28°C° 0 mm 2 m/s 762 mmHg 41%
    13:00 +29°C° 0 mm 2 m/s 761 mmHg 39%
    14:00 +29°C° 0 mm 2 m/s 761 mmHg 38%
    15:00 +28°C° 0 mm 2 m/s 761 mmHg 40%
    16:00 +28°C° 0 mm 2 m/s 761 mmHg 43%
    17:00 +27°C° 0 mm 2 m/s 761 mmHg 46%
    18:00 +26°C° 0 mm 2 m/s 761 mmHg 52%
    19:00 +24°C° 0 mm 2 m/s 761 mmHg 58%
    20:00 +23°C° 0 mm 2 m/s 761 mmHg 63%
    21:00 +21°C° 0 mm 3 m/s 761 mmHg 65%
    22:00 +21°C° 0 mm 3 m/s 761 mmHg 66%
    23:00 +21°C° 0 mm 3 m/s 761 mmHg 68%

    23 Setembro, Domingo

    Tempo Temperatura Precipitação Vento Pressão Humidade
    00:00 +21°C° 0 mm 3 m/s 761 mmHg 68%
    01:00 +21°C° 0 mm 4 m/s 761 mmHg 68%
    02:00 +21°C° 0 mm 4 m/s 761 mmHg 68%
    03:00 +21°C° 0 mm 4 m/s 762 mmHg 63%
    04:00 +21°C° 0 mm 5 m/s 762 mmHg 58%
    05:00 +21°C° 0 mm 6 m/s 762 mmHg 53%
    06:00 +20°C° 0 mm 7 m/s 763 mmHg 56%
    07:00 +20°C° 0 mm 8 m/s 763 mmHg 58%
    08:00 +19°C° 0 mm 9 m/s 764 mmHg 61%
    09:00 +21°C° 0 mm 8 m/s 764 mmHg 55%
    10:00 +22°C° 0 mm 8 m/s 765 mmHg 49%
    11:00 +23°C° 0 mm 7 m/s 765 mmHg 44%
    12:00 +23°C° 0 mm 6 m/s 765 mmHg 41%
    13:00 +24°C° 0 mm 6 m/s 765 mmHg 39%
    14:00 +26°C° 0 mm 5 m/s 765 mmHg 37%
    15:00 +25°C° 0 mm 5 m/s 765 mmHg 38%
    16:00 +25°C° 0 mm 5 m/s 765 mmHg 38%
    17:00 +23°C° 0 mm 5 m/s 765 mmHg 39%
    18:00 +22°C° 0 mm 5 m/s 765 mmHg 45%
    19:00 +21°C° 0 mm 4 m/s 766 mmHg 51%
    20:00 +19°C° 0 mm 4 m/s 766 mmHg 57%
    21:00 +19°C° 0 mm 4 m/s 766 mmHg 58%
    22:00 +19°C° 0 mm 4 m/s 766 mmHg 60%
    23:00 +19°C° 0 mm 4 m/s 766 mmHg 61%

    24 Setembro, Segunda-feira

    Tempo Temperatura Precipitação Vento Pressão Humidade
    00:00 +19°C° 0 mm 4 m/s 766 mmHg 63%
    01:00 +19°C° 0 mm 4 m/s 765 mmHg 64%
    02:00 +19°C° 0 mm 4 m/s 765 mmHg 65%
    03:00 +19°C° 0 mm 5 m/s 765 mmHg 68%
    04:00 +19°C° 0 mm 5 m/s 764 mmHg 70%
    05:00 +19°C° 0 mm 5 m/s 764 mmHg 72%
    06:00 +20°C° 0 mm 6 m/s 763 mmHg 70%
    07:00 +21°C° 0 mm 6 m/s 763 mmHg 68%
    08:00 +22°C° 0 mm 6 m/s 762 mmHg 66%
    09:00 +23°C° 0 mm 7 m/s 762 mmHg 62%
    10:00 +24°C° 0 mm 7 m/s 761 mmHg 57%
    11:00 +26°C° 0 mm 7 m/s 761 mmHg 53%
    12:00 +27°C° 0 mm 7 m/s 760 mmHg 52%
    13:00 +28°C° 0 mm 7 m/s 759 mmHg 50%
    14:00 +29°C° 0 mm 7 m/s 758 mmHg 48%
    15:00 +28°C° 0 mm 7 m/s 758 mmHg 51%
    16:00 +28°C° 0 mm 7 m/s 758 mmHg 54%
    17:00 +27°C° 0 mm 7 m/s 757 mmHg 57%
    18:00 +26°C° 0 mm 6 m/s 758 mmHg 62%
    19:00 +24°C° 0 mm 6 m/s 758 mmHg 67%
    20:00 +23°C° 0 mm 6 m/s 758 mmHg 72%
    21:00 +23°C° 0 mm 6 m/s 758 mmHg 64%
    22:00 +23°C° 0 mm 6 m/s 759 mmHg 57%
    23:00 +23°C° 0 mm 6 m/s 759 mmHg 49%

    25 Setembro, Terça-feira

    Tempo Temperatura Precipitação Vento Pressão Humidade
    00:00 +22°C° 0 mm 8 m/s 760 mmHg 50%
    01:00 +19°C° 0 mm 9 m/s 761 mmHg 50%
    02:00 +18°C° 0 mm 11 m/s 761 mmHg 50%
    03:00 +17°C° 0 mm 11 m/s 762 mmHg 49%
    04:00 +17°C° 0 mm 10 m/s 763 mmHg 47%
    05:00 +16°C° 0 mm 10 m/s 764 mmHg 46%
    06:00 +16°C° 0.1 mm 9 m/s 764 mmHg 46%
    07:00 +16°C° 0.1 mm 8 m/s 765 mmHg 46%
    08:00 +16°C° 0.1 mm 8 m/s 765 mmHg 46%
    09:00 +16°C° 0.1 mm 7 m/s 766 mmHg 44%
    10:00 +16°C° 0.1 mm 7 m/s 766 mmHg 42%
    11:00 +16°C° 0.1 mm 6 m/s 766 mmHg 40%
    12:00 +17°C° 0 mm 6 m/s 766 mmHg 38%
    13:00 +17°C° 0 mm 6 m/s 766 mmHg 36%
    14:00 +17°C° 0 mm 6 m/s 766 mmHg 34%
    15:00 +17°C° 0.2 mm 6 m/s 767 mmHg 35%
    16:00 +16°C° 0.2 mm 6 m/s 767 mmHg 36%
    17:00 +16°C° 0.2 mm 6 m/s 767 mmHg 38%
    18:00 +16°C° 0.1 mm 6 m/s 768 mmHg 39%
    19:00 +15°C° 0.1 mm 6 m/s 768 mmHg 40%
    20:00 +15°C° 0.1 mm 7 m/s 769 mmHg 42%
    21:00 +15°C° 0 mm 7 m/s 769 mmHg 43%
    22:00 +13°C° 0 mm 8 m/s 769 mmHg 43%
    23:00 +13°C° 0 mm 9 m/s 769 mmHg 44%
    Mostrar mais